Year,Month,Day,Hour,Minute,Value (Times are PST for temperature in C)
2016,08,16,08,45,15.80
2016,08,16,08,46,15.90
2016,08,16,08,47,16.00
2016,08,16,08,48,16.00
2016,08,16,08,49,16.10
2016,08,16,08,50,16.10
2016,08,16,08,51,16.20
2016,08,16,08,52,16.30
2016,08,16,08,53,16.30
2016,08,16,08,54,16.40
2016,08,16,08,55,16.50
2016,08,16,08,56,16.50
2016,08,16,08,57,16.60
2016,08,16,08,58,16.60
2016,08,16,08,59,16.60
2016,08,16,09,00,16.70
2016,08,16,09,01,16.70
2016,08,16,09,02,16.80
2016,08,16,09,03,16.90
2016,08,16,09,04,16.90
2016,08,16,09,05,17.00
2016,08,16,09,06,17.10
2016,08,16,09,07,17.20
2016,08,16,09,08,17.20
2016,08,16,09,09,17.30
2016,08,16,09,10,17.40
2016,08,16,09,11,17.50
2016,08,16,09,12,17.50
2016,08,16,09,13,17.60
2016,08,16,09,14,17.60
2016,08,16,09,15,17.70
2016,08,16,09,16,17.70
2016,08,16,09,17,17.80
2016,08,16,09,18,17.80
2016,08,16,09,19,17.80
2016,08,16,09,20,17.90
2016,08,16,09,21,17.90
2016,08,16,09,22,17.90
2016,08,16,09,23,18.00
2016,08,16,09,24,18.00
2016,08,16,09,25,18.10
2016,08,16,09,26,18.10
2016,08,16,09,27,18.10
2016,08,16,09,28,18.10
2016,08,16,09,29,18.20
2016,08,16,09,30,18.20
2016,08,16,09,31,18.20
2016,08,16,09,32,18.20
2016,08,16,09,33,18.20
2016,08,16,09,34,18.20
2016,08,16,09,35,18.20
2016,08,16,09,36,18.20
2016,08,16,09,37,18.20
2016,08,16,09,38,18.20
2016,08,16,09,39,18.20
2016,08,16,09,40,18.10
2016,08,16,09,41,18.10
2016,08,16,09,42,18.10
2016,08,16,09,43,18.10
2016,08,16,09,44,18.10
2016,08,16,09,45,18.10
2016,08,16,09,46,18.20
2016,08,16,09,47,18.20
2016,08,16,09,48,18.30
2016,08,16,09,49,18.40
2016,08,16,09,50,18.40
2016,08,16,09,51,18.50
2016,08,16,09,52,18.50
2016,08,16,09,53,18.50
2016,08,16,09,54,18.40
2016,08,16,09,55,18.40
2016,08,16,09,56,18.30
2016,08,16,09,57,18.20
2016,08,16,09,58,18.10
2016,08,16,09,59,18.00
2016,08,16,10,00,17.90
2016,08,16,10,01,17.80
2016,08,16,10,02,17.70
2016,08,16,10,03,17.70
2016,08,16,10,04,17.70
2016,08,16,10,05,17.80
2016,08,16,10,06,17.80
2016,08,16,10,07,17.80
2016,08,16,10,08,17.80
2016,08,16,10,09,17.90
2016,08,16,10,10,17.90
2016,08,16,10,11,17.90
2016,08,16,10,12,18.00
2016,08,16,10,13,18.00
2016,08,16,10,14,18.10
2016,08,16,10,15,18.10
2016,08,16,10,16,18.20
2016,08,16,10,17,18.20
2016,08,16,10,18,18.20
2016,08,16,10,19,18.20
2016,08,16,10,20,18.20
2016,08,16,10,21,18.20
2016,08,16,10,22,18.20
2016,08,16,10,23,18.30
2016,08,16,10,24,18.30
2016,08,16,10,25,18.40
2016,08,16,10,26,18.50
2016,08,16,10,27,18.50
2016,08,16,10,28,18.70
2016,08,16,10,29,18.80
2016,08,16,10,30,18.80
2016,08,16,10,31,18.90
2016,08,16,10,32,19.00
2016,08,16,10,33,19.00
2016,08,16,10,34,19.10
2016,08,16,10,35,19.20
2016,08,16,10,36,19.40
2016,08,16,10,37,19.50
2016,08,16,10,38,19.70
2016,08,16,10,39,19.80
2016,08,16,10,40,19.90
2016,08,16,10,41,20.00
2016,08,16,10,42,20.10
2016,08,16,10,43,20.10
2016,08,16,10,44,20.10
2016,08,16,10,45,20.10
2016,08,16,10,46,20.20
2016,08,16,10,47,20.20
2016,08,16,10,48,20.20
2016,08,16,10,49,20.20
2016,08,16,10,50,20.20
2016,08,16,10,51,20.20
2016,08,16,10,52,20.20
2016,08,16,10,53,20.20
2016,08,16,10,54,20.20
2016,08,16,10,55,20.20
2016,08,16,10,56,20.30
2016,08,16,10,57,20.30
2016,08,16,10,58,20.30
2016,08,16,10,59,20.20
2016,08,16,11,00,20.20
2016,08,16,11,01,20.20
2016,08,16,11,02,20.20
2016,08,16,11,03,20.20
2016,08,16,11,04,20.20
2016,08,16,11,05,20.30
2016,08,16,11,06,20.30
2016,08,16,11,07,20.40
2016,08,16,11,08,20.40
2016,08,16,11,09,20.40
2016,08,16,11,10,20.40
2016,08,16,11,11,20.40
2016,08,16,11,12,20.40
2016,08,16,11,13,20.40
2016,08,16,11,14,20.40
2016,08,16,11,15,20.40
2016,08,16,11,16,20.50
2016,08,16,11,17,20.50
2016,08,16,11,18,20.50
2016,08,16,11,19,20.60
2016,08,16,11,20,20.70
2016,08,16,11,21,20.70
2016,08,16,11,22,20.70
2016,08,16,11,23,20.70
2016,08,16,11,24,20.70
2016,08,16,11,25,20.70
2016,08,16,11,26,20.80
2016,08,16,11,27,20.80
2016,08,16,11,28,20.90
2016,08,16,11,29,20.90
2016,08,16,11,30,20.90
2016,08,16,11,31,20.90
2016,08,16,11,32,21.00
2016,08,16,11,33,21.00
2016,08,16,11,34,21.00
2016,08,16,11,35,21.00
2016,08,16,11,36,21.00
2016,08,16,11,37,20.90
2016,08,16,11,38,20.90
2016,08,16,11,39,20.90
2016,08,16,11,40,20.80
2016,08,16,11,41,20.70
2016,08,16,11,42,20.50
2016,08,16,11,43,20.40
2016,08,16,11,44,20.30
2016,08,16,11,45,20.30
2016,08,16,11,46,20.40
2016,08,16,11,47,20.40
2016,08,16,11,48,20.50
2016,08,16,11,49,20.60
2016,08,16,11,50,20.60
2016,08,16,11,51,20.70
2016,08,16,11,52,20.60
2016,08,16,11,53,20.50
2016,08,16,11,54,20.40
2016,08,16,11,55,20.40
2016,08,16,11,56,20.50
2016,08,16,11,57,20.60
2016,08,16,11,58,20.60
2016,08,16,11,59,20.70
2016,08,16,12,00,20.80
2016,08,16,12,01,20.80
2016,08,16,12,02,20.90
2016,08,16,12,03,21.00
2016,08,16,12,04,21.10
2016,08,16,12,05,21.10
2016,08,16,12,06,21.20
2016,08,16,12,07,21.20
2016,08,16,12,08,21.10
2016,08,16,12,09,21.10
2016,08,16,12,10,21.10
2016,08,16,12,11,21.20
2016,08,16,12,12,21.20
2016,08,16,12,13,21.20
2016,08,16,12,14,21.10
2016,08,16,12,15,21.10
2016,08,16,12,16,21.10
2016,08,16,12,17,21.10
2016,08,16,12,18,21.10
2016,08,16,12,19,21.00
2016,08,16,12,20,21.00
2016,08,16,12,21,20.90
2016,08,16,12,22,20.90
2016,08,16,12,23,20.90
2016,08,16,12,24,20.90
2016,08,16,12,25,20.90
2016,08,16,12,26,20.90
2016,08,16,12,27,20.90
2016,08,16,12,28,20.80
2016,08,16,12,29,20.80
2016,08,16,12,30,20.80
2016,08,16,12,31,20.80
2016,08,16,12,32,20.80
2016,08,16,12,33,20.90
2016,08,16,12,34,20.90
2016,08,16,12,35,20.90
2016,08,16,12,36,20.90
2016,08,16,12,37,20.90
2016,08,16,12,38,20.90
2016,08,16,12,39,21.00
2016,08,16,12,40,21.00
2016,08,16,12,41,21.10
2016,08,16,12,42,21.20
2016,08,16,12,43,21.20
2016,08,16,12,44,21.20
2016,08,16,12,45,21.10
2016,08,16,12,46,21.10
2016,08,16,12,47,21.10
2016,08,16,12,48,21.10
2016,08,16,12,49,21.10
2016,08,16,12,50,21.20
2016,08,16,12,51,21.30
2016,08,16,12,52,21.40
2016,08,16,12,53,21.40
2016,08,16,12,54,21.40
2016,08,16,12,55,21.30
2016,08,16,12,56,21.20
2016,08,16,12,57,21.00
2016,08,16,12,58,20.80
2016,08,16,12,59,20.60
2016,08,16,13,00,20.40
2016,08,16,13,01,20.30
2016,08,16,13,02,20.20
2016,08,16,13,03,20.10
2016,08,16,13,04,20.00
2016,08,16,13,05,19.90
2016,08,16,13,06,19.90
2016,08,16,13,07,19.90
2016,08,16,13,08,19.90
2016,08,16,13,09,19.90
2016,08,16,13,10,19.90
2016,08,16,13,11,19.90
2016,08,16,13,12,19.90
2016,08,16,13,13,19.80
2016,08,16,13,14,19.80
2016,08,16,13,15,19.90
2016,08,16,13,16,19.90
2016,08,16,13,17,19.90
2016,08,16,13,18,19.90
2016,08,16,13,19,19.90
2016,08,16,13,20,19.90
2016,08,16,13,21,19.90
2016,08,16,13,22,19.80
2016,08,16,13,23,19.80
2016,08,16,13,24,19.70
2016,08,16,13,25,19.70
2016,08,16,13,26,19.70
2016,08,16,13,27,19.70
2016,08,16,13,28,19.70
2016,08,16,13,29,19.70
2016,08,16,13,30,19.70
2016,08,16,13,31,19.80
2016,08,16,13,32,19.80
2016,08,16,13,33,19.90
2016,08,16,13,34,20.00
2016,08,16,13,35,20.10
2016,08,16,13,36,20.20
2016,08,16,13,37,20.30
2016,08,16,13,38,20.40
2016,08,16,13,39,20.50
2016,08,16,13,40,20.70
2016,08,16,13,41,20.70
2016,08,16,13,42,20.80
2016,08,16,13,43,20.90
2016,08,16,13,44,20.90
2016,08,16,13,45,20.90
2016,08,16,13,46,20.90
2016,08,16,13,47,20.90
2016,08,16,13,48,21.00
2016,08,16,13,49,21.10
2016,08,16,13,50,21.10
2016,08,16,13,51,21.20
2016,08,16,13,52,21.30
2016,08,16,13,53,21.30
2016,08,16,13,54,21.30
2016,08,16,13,55,21.30
2016,08,16,13,56,21.20
2016,08,16,13,57,21.10
2016,08,16,13,58,20.90
2016,08,16,13,59,20.80
2016,08,16,14,00,20.70
2016,08,16,14,01,20.60
2016,08,16,14,02,20.50
2016,08,16,14,03,20.50
2016,08,16,14,04,20.40
2016,08,16,14,05,20.40
2016,08,16,14,06,20.50
2016,08,16,14,07,20.60
2016,08,16,14,08,20.70
2016,08,16,14,09,20.80
2016,08,16,14,10,20.80
2016,08,16,14,11,20.90
2016,08,16,14,12,20.90
2016,08,16,14,13,20.90
2016,08,16,14,14,21.00
2016,08,16,14,15,21.10
2016,08,16,14,16,21.10
2016,08,16,14,17,21.10
2016,08,16,14,18,21.10
2016,08,16,14,19,21.10
2016,08,16,14,20,21.10
2016,08,16,14,21,21.10
2016,08,16,14,22,21.10
2016,08,16,14,23,21.20
2016,08,16,14,24,21.20
2016,08,16,14,25,21.20
2016,08,16,14,26,21.20
2016,08,16,14,27,21.20
2016,08,16,14,28,21.10
2016,08,16,14,29,21.00
2016,08,16,14,30,21.00
2016,08,16,14,31,20.90
2016,08,16,14,32,20.90
2016,08,16,14,33,20.90
2016,08,16,14,34,20.90
2016,08,16,14,35,20.90
2016,08,16,14,36,20.90
2016,08,16,14,37,20.90
2016,08,16,14,38,20.90
2016,08,16,14,39,20.90
2016,08,16,14,40,20.80
2016,08,16,14,41,20.80
2016,08,16,14,42,20.80
2016,08,16,14,43,20.70
2016,08,16,14,44,20.70
2016,08,16,14,45,20.70
2016,08,16,14,46,20.70
2016,08,16,14,47,20.80
2016,08,16,14,48,20.90
2016,08,16,14,49,20.90
2016,08,16,14,50,20.90
2016,08,16,14,51,21.00
2016,08,16,14,52,20.90
2016,08,16,14,53,20.90
2016,08,16,14,54,20.90
2016,08,16,14,55,20.90
2016,08,16,14,56,20.90
2016,08,16,14,57,20.90
2016,08,16,14,58,20.90
2016,08,16,14,59,21.00
2016,08,16,15,00,21.00
2016,08,16,15,01,21.10
2016,08,16,15,02,21.10
2016,08,16,15,03,21.20
2016,08,16,15,04,21.40
2016,08,16,15,05,21.50
2016,08,16,15,06,21.60
2016,08,16,15,07,21.70
2016,08,16,15,08,21.80
2016,08,16,15,09,21.90
2016,08,16,15,10,22.00
2016,08,16,15,11,22.00
2016,08,16,15,12,22.10
2016,08,16,15,13,22.10
2016,08,16,15,14,22.10
2016,08,16,15,15,22.10
2016,08,16,15,16,22.10
2016,08,16,15,17,22.10
2016,08,16,15,18,22.00
2016,08,16,15,19,22.10
2016,08,16,15,20,22.10
2016,08,16,15,21,22.10
2016,08,16,15,22,22.20
2016,08,16,15,23,22.20
2016,08,16,15,24,22.20
2016,08,16,15,25,22.20
2016,08,16,15,26,22.30
2016,08,16,15,27,22.30
2016,08,16,15,28,22.40
2016,08,16,15,29,22.50
2016,08,16,15,30,22.60
2016,08,16,15,31,22.70
2016,08,16,15,32,22.90
2016,08,16,15,33,22.90
2016,08,16,15,34,23.10
2016,08,16,15,35,23.20
2016,08,16,15,36,23.30
2016,08,16,15,37,23.40
2016,08,16,15,38,23.50
2016,08,16,15,39,23.60
2016,08,16,15,40,23.70
2016,08,16,15,41,23.80
2016,08,16,15,42,23.90
2016,08,16,15,43,24.10
2016,08,16,15,44,24.20
2016,08,16,15,45,24.30
2016,08,16,15,46,24.40
2016,08,16,15,47,24.50
2016,08,16,15,48,24.60
2016,08,16,15,49,24.70
2016,08,16,15,50,24.80
2016,08,16,15,51,24.80
2016,08,16,15,52,24.90
2016,08,16,15,53,25.00
2016,08,16,15,54,25.00
2016,08,16,15,55,25.00
2016,08,16,15,56,25.00
2016,08,16,15,57,25.00
2016,08,16,15,58,25.10
2016,08,16,15,59,25.10
2016,08,16,16,00,25.20
2016,08,16,16,01,25.20
2016,08,16,16,02,25.20
2016,08,16,16,03,25.20
2016,08,16,16,04,25.20
2016,08,16,16,05,25.20
2016,08,16,16,06,25.20
2016,08,16,16,07,25.10
2016,08,16,16,08,25.10
2016,08,16,16,09,25.10
2016,08,16,16,10,25.10
2016,08,16,16,11,25.10
2016,08,16,16,12,25.00
2016,08,16,16,13,24.90
2016,08,16,16,14,24.90
2016,08,16,16,15,24.90
2016,08,16,16,16,24.90
2016,08,16,16,17,24.90
2016,08,16,16,18,24.90
2016,08,16,16,19,24.80
2016,08,16,16,20,24.80
2016,08,16,16,21,24.70
2016,08,16,16,22,24.70
2016,08,16,16,23,24.70
2016,08,16,16,24,24.70
2016,08,16,16,25,24.80
2016,08,16,16,26,24.80
2016,08,16,16,27,24.70
2016,08,16,16,28,24.70
2016,08,16,16,29,24.70
2016,08,16,16,30,24.70
2016,08,16,16,31,24.70
2016,08,16,16,32,24.70
2016,08,16,16,33,24.70
2016,08,16,16,34,24.70
2016,08,16,16,35,24.60
2016,08,16,16,36,24.50
2016,08,16,16,37,24.40
2016,08,16,16,38,24.40
2016,08,16,16,39,24.40
2016,08,16,16,40,24.40
2016,08,16,16,41,24.40
2016,08,16,16,42,24.40
2016,08,16,16,43,24.50
2016,08,16,16,44,24.50
2016,08,16,16,45,24.50
2016,08,16,16,46,24.60
2016,08,16,16,47,24.50
2016,08,16,16,48,24.50
2016,08,16,16,49,24.40
2016,08,16,16,50,24.30
2016,08,16,16,51,24.10
2016,08,16,16,52,24.00
2016,08,16,16,53,23.90
2016,08,16,16,54,23.80
2016,08,16,16,55,23.80
2016,08,16,16,56,23.80
2016,08,16,16,57,23.80
2016,08,16,16,58,23.80
2016,08,16,16,59,23.80
2016,08,16,17,00,23.80
2016,08,16,17,01,23.90
2016,08,16,17,02,23.90
2016,08,16,17,03,23.90
2016,08,16,17,04,23.90
2016,08,16,17,05,23.90
2016,08,16,17,06,23.90
2016,08,16,17,07,23.90
2016,08,16,17,08,23.90
2016,08,16,17,09,23.90
2016,08,16,17,10,24.00
2016,08,16,17,11,24.00
2016,08,16,17,12,23.90
2016,08,16,17,13,23.80
2016,08,16,17,14,23.70
2016,08,16,17,15,23.60
2016,08,16,17,16,23.60
2016,08,16,17,17,23.60
2016,08,16,17,18,23.60
2016,08,16,17,19,23.60
2016,08,16,17,20,23.60
2016,08,16,17,21,23.60
2016,08,16,17,22,23.60
2016,08,16,17,23,23.60
2016,08,16,17,24,23.60
2016,08,16,17,25,23.60
2016,08,16,17,26,23.60
2016,08,16,17,27,23.60
2016,08,16,17,28,23.70
2016,08,16,17,29,23.70
2016,08,16,17,30,23.70
2016,08,16,17,31,23.70
2016,08,16,17,32,23.80
2016,08,16,17,33,23.80
2016,08,16,17,34,23.80
2016,08,16,17,35,23.80
2016,08,16,17,36,23.80
2016,08,16,17,37,23.80
2016,08,16,17,38,23.80
2016,08,16,17,39,23.80
2016,08,16,17,40,23.80
2016,08,16,17,41,23.80
2016,08,16,17,42,23.80
2016,08,16,17,43,23.80
2016,08,16,17,44,23.70
2016,08,16,17,45,23.70
2016,08,16,17,46,23.70
2016,08,16,17,47,23.60
2016,08,16,17,48,23.60
2016,08,16,17,49,23.60
2016,08,16,17,50,23.50
2016,08,16,17,51,23.50
2016,08,16,17,52,23.40
2016,08,16,17,53,23.40
2016,08,16,17,54,23.40
2016,08,16,17,55,23.30
2016,08,16,17,56,23.30
2016,08,16,17,57,23.20
2016,08,16,17,58,23.20
2016,08,16,17,59,23.10
2016,08,16,18,00,23.00
2016,08,16,18,01,23.00
2016,08,16,18,02,22.90
2016,08,16,18,03,22.90
2016,08,16,18,04,22.80
2016,08,16,18,05,22.80
2016,08,16,18,06,22.70
2016,08,16,18,07,22.70
2016,08,16,18,08,22.70
2016,08,16,18,09,22.60
2016,08,16,18,10,22.60
2016,08,16,18,11,22.60
2016,08,16,18,12,22.60
2016,08,16,18,13,22.50
2016,08,16,18,14,22.50
2016,08,16,18,15,22.50
2016,08,16,18,16,22.50
2016,08,16,18,17,22.40
2016,08,16,18,18,22.40
2016,08,16,18,19,22.30
2016,08,16,18,20,22.20
2016,08,16,18,21,22.10
2016,08,16,18,22,22.00
2016,08,16,18,23,21.90
2016,08,16,18,24,21.90
2016,08,16,18,25,21.90
2016,08,16,18,26,21.80
2016,08,16,18,27,21.80
2016,08,16,18,28,21.80
2016,08,16,18,29,21.70
2016,08,16,18,30,21.60
2016,08,16,18,31,21.50
2016,08,16,18,32,21.40
2016,08,16,18,33,21.40
2016,08,16,18,34,21.30
2016,08,16,18,35,21.30
2016,08,16,18,36,21.30
2016,08,16,18,37,21.30
2016,08,16,18,38,21.30
2016,08,16,18,39,21.30
2016,08,16,18,40,21.30
2016,08,16,18,41,21.30
2016,08,16,18,42,21.30
2016,08,16,18,43,21.30
2016,08,16,18,44,21.30
